Regional Weather Roundup
Issued by NWS

Home | Current Version | Previous Version | Graphics & Text | Print | Product List | Glossary On
Versions: 1 2 3 4 5 6 7 8 9 10 11 12 13 14 15 16 17 18 19 20 21 22 23 24 25 26 27 28
000
ASUS45 KCYS 251110
RWRWY

WYOMING REGIONAL WEATHER ROUNDUP
NATIONAL WEATHER SERVICE CHEYENNE WY
500 AM MDT WED MAY 25 2016

NOTE:  "FAIR" INDICATES FEW OR NO CLOUDS BELOW 12,000 FEET
WITH NO SIGNIFICANT WEATHER AND/OR OBSTRUCTIONS TO VISIBILITY.

WYZ001-251200-
YELLOWSTONE NATIONAL PARK

CITY           SKY/WX    TMP DP  RH WIND       PRES   REMARKS
LK YELLOWSTONE   N/A     33  31  92 CALM      30.01S
W YELLOWSTONE  NOT AVBL

$$
WYZ002>013-054>058-071-098>099-251200-
NORTHERN WYOMING

CITY           SKY/WX    TMP DP  RH WIND       PRES   REMARKS
JACKSON        CLOUDY    39  39 100 SW3       29.99R
CODY           CLOUDY    45  43  93 SE6       29.92R
GREYBULL       CLOUDY    51  49  92 CALM      29.89S
WORLAND        CLOUDY    47  44  90 S8        29.90R
SHERIDAN       CLOUDY    48  45  89 CALM      29.91S
BUFFALO        CLOUDY    46  42  86 N9        29.92S
GILLETTE       CLOUDY    47  46  97 N6        29.89R
HULETT         CLOUDY    48  46  93 W9        29.88R
NEWCASTLE      CLOUDY    46  46 100 SE6       29.89R

$$
WYZ014>020-022>026-101>103-251200-
CENTRAL WYOMING

CITY           SKY/WX    TMP DP  RH WIND       PRES   REMARKS
BIG PINEY      CLOUDY    38  36  92 CALM      30.02S
PINEDALE       DRIZZLE   36  36 100 CALM      30.03S
DUBOIS         CLOUDY    39  32  75 N9        29.96R WCI  33
LANDER         FAIR      41  35  79 CALM      29.92R
RIVERTON       MOCLDY    43  39  86 CALM      29.93R
CASPER         FAIR      39  34  82 NW12      29.93R WCI  32
DOUGLAS          N/A    N/A N/A N/A MISG      29.92R

$$
WYZ021-027>030-104>119-251200-
SOUTHERN WYOMING

CITY           SKY/WX    TMP DP  RH WIND       PRES   REMARKS
EVANSTON       CLOUDY    37  32  82 S8        30.03S WCI  31
KEMMERER         N/A     34  32  93 CALM      30.03S
FORT BRIDGER   CLOUDY    39  37  93 W7        30.06S WCI  34
ROCK SPRINGS   CLOUDY    38  34  85 NW3       30.02S
DIXON          FAIR      41  37  86 N7        30.05S
RAWLINS        FAIR      40  33  76 SW10      30.01R WCI  33
SARATOGA       FAIR      37  37 100 SE12G18   30.02S WCI  30
LARAMIE        MOCLDY    35  32  88 SW8       30.02S WCI  29
CHEYENNE       FAIR      46  34  62 NW10      29.97R
TORRINGTON     FAIR      42  40  92 W5        29.92R
PINE BLUFFS    FAIR      36  36 100 W5        29.96R WCI  32

$$




USA.gov is the U.S. government's official web portal to all federal, state and local government web resources and services.